Flag for U.S.A. Weather past 2 weeks in Gainesville, Florida, U.S.A.

Now
61 °F

Fog.


Feels Like: 61 °F
Forecast: 56 / 79 °F
Wind: No wind

Location: Gainesville Regional Airport

Current Time: Mar 2, 2015 at 10:51:16 AM

Latest Report: Mar 2, 2015 at 9:53 AM


Visibility: 1 mi

Pressure: 30.33 "Hg

Humidity: 100%

Dew point: 61 °F

Location of GainesvilleLocation

Historic Weather in Gainesville — Graph

°F

Gainesville temperature yesterday

Maximum temperature yesterday: 74 °F (at 2:53 PM)
Minimum temperature yesterday: 51 °F (at 12:53 AM)
Average temperature yesterday: 61 °F

Past Weeks' High & Low Weather Summary

 TemperatureHumidityPressure
High79 °F (Feb 22, 1:53 PM)100% (Feb 22, 5:53 AM)30.48 "Hg (Feb 22, 5:53 AM)
Low24 °F (Feb 20, 6:53 AM)16% (Feb 20, 3:53 PM)29.59 "Hg (Feb 26, 1:53 AM)
Average55 °F75%30.15 "Hg
* Reported Feb 15 9:53 AM — Mar 2 9:53 AM, Gainesville, Weather by CustomWeather, © 2015

Note: Actual official high and low records may vary slightly from our data, if they occured in-between our weather recording intervals... More about our weather records

Advertising

Gainesville weather history for previous 24 hours

 ConditionsComfort  
Time TempWeatherWind HumidityBarometerVisibility
9:53 AM
Mon, Mar 2
61 °FFog.No wind100%30.33 "Hg1 mi
8:53 AM59 °FFog.No wind100%30.31 "Hg0 mi
7:53 AM58 °FFog.3 mph100%30.31 "Hg0 mi
6:53 AM58 °FFog.3 mph100%30.30 "Hg0 mi
5:53 AM58 °FFog.No wind100%30.30 "Hg0 mi
4:53 AM58 °FFog.5 mph100%30.30 "Hg1 mi
4:00 AM59 °FFog.3 mph100%30.31 "Hg1 mi
2:53 AM59 °FFog.5 mph100%30.30 "Hg0 mi
1:53 AM59 °FFog.5 mph100%30.32 "Hg0 mi
12:53 AM60 °FFog.5 mph100%30.33 "Hg0 mi
11:53 PM
Sun, Mar 1
61 °FFog.6 mph97%30.34 "Hg6 mi
10:53 PM63 °FLow clouds.5 mph93%30.35 "Hg9 mi
10:03 PM63 °FMostly cloudy.7 mph93%30.35 "Hg10 mi
8:53 PM65 °FOvercast.5 mph87%30.34 "Hg10 mi
7:53 PM65 °FOvercast.7 mph87%30.32 "Hg10 mi
6:53 PM67 °FOvercast.8 mph87%30.32 "Hg10 mi
5:53 PM70 °FCloudy.10 mph84%30.30 "Hg10 mi
4:53 PM73 °FMostly cloudy.6 mph76%30.28 "Hg10 mi
3:53 PM74 °FOvercast.5 mph74%30.29 "Hg10 mi
2:53 PM74 °FMostly cloudy.9 mph71%30.31 "Hg10 mi
1:53 PM72 °FMostly cloudy.7 mph76%30.33 "Hg10 mi
1:00 PM70 °FMostly cloudy.6 mph76%30.36 "Hg10 mi
11:53 AM67 °FMostly cloudy.7 mph81%30.39 "Hg10 mi
11:00 AM61 °FLow clouds.3 mph90%30.41 "Hg9 mi
Weather by CustomWeather, © 2015

See weather overviewHow to use our weather pages